SCX252 KMSP-KATW

Flight info

Callsign SCX252
Flight time 0h 38m
Altitude 30000
Route WLSTN7 GRB
Aircraft B739/M-SDE2E3FGHIRWXY/LB1

Departure

Time 2026-05-04 02:42
Airport Minneapolis–Saint Paul International Airport / Wold–Chamberlain Field (KMSP)

Arrival

Time 2026-05-04 03:21
Airport Appleton International Airport (KATW)
Time Latitude Longitude Altitude Speed Heading
2026-05-04 02:18 44.87632 -93.22654 824 ft 0 kts 133°
2026-05-04 02:29 44.87634 -93.22658 824 ft 1 kts 133°
2026-05-04 02:29 44.87639 -93.22665 824 ft 1 kts 133°
2026-05-04 02:30 44.87644 -93.22672 824 ft 1 kts 133°
2026-05-04 02:30 44.87648 -93.22679 821 ft 1 kts 133°
2026-05-04 02:30 44.87653 -93.22687 821 ft 1 kts 132°
2026-05-04 02:30 44.87658 -93.22694 821 ft 1 kts 127°
2026-05-04 02:31 44.87662 -93.22702 824 ft 1 kts 122°
2026-05-04 02:31 44.87670 -93.22722 824 ft 2 kts 120°
2026-05-04 02:31 44.87678 -93.22744 820 ft 2 kts 108°
2026-05-04 02:31 44.87682 -93.22767 821 ft 2 kts 92°
2026-05-04 02:32 44.87681 -93.22792 820 ft 2 kts 76°
2026-05-04 02:32 44.87679 -93.22801 820 ft 0 kts 56°
2026-05-04 02:35 44.87718 -93.22728 824 ft 12 kts 49°
2026-05-04 02:35 44.87774 -93.22646 824 ft 11 kts 44°
2026-05-04 02:35 44.87829 -93.22570 824 ft 11 kts 44°
2026-05-04 02:35 44.87882 -93.22494 823 ft 11 kts 46°
2026-05-04 02:36 44.87934 -93.22419 821 ft 10 kts 46°
2026-05-04 02:36 44.87984 -93.22348 823 ft 10 kts 46°
2026-05-04 02:36 44.88024 -93.22289 823 ft 0 kts 47°
2026-05-04 02:37 44.88024 -93.22288 821 ft 1 kts 47°
2026-05-04 02:37 44.88036 -93.22271 824 ft 7 kts 47°
2026-05-04 02:37 44.88089 -93.22172 825 ft 14 kts 71°
2026-05-04 02:37 44.88057 -93.22047 824 ft 14 kts 121°
2026-05-04 02:38 44.87999 -93.21913 821 ft 18 kts 122°
2026-05-04 02:38 44.87933 -93.21763 823 ft 18 kts 121°
2026-05-04 02:38 44.87871 -93.21618 823 ft 17 kts 121°
2026-05-04 02:38 44.87794 -93.21442 824 ft 22 kts 121°
2026-05-04 02:39 44.87712 -93.21257 824 ft 22 kts 122°
2026-05-04 02:39 44.87635 -93.21076 823 ft 21 kts 121°
2026-05-04 02:39 44.87559 -93.20900 824 ft 21 kts 121°
2026-05-04 02:39 44.87482 -93.20734 824 ft 20 kts 133°
2026-05-04 02:40 44.87376 -93.20612 823 ft 19 kts 131°
2026-05-04 02:40 44.87303 -93.20456 823 ft 19 kts 122°
2026-05-04 02:40 44.87241 -93.20310 824 ft 10 kts 113°
2026-05-04 02:40 44.87259 -93.20222 823 ft 10 kts 41°
2026-05-04 02:41 44.87316 -93.20166 822 ft 10 kts 33°
2026-05-04 02:41 44.87370 -93.20165 826 ft 8 kts 307°
2026-05-04 02:41 44.87371 -93.20168 826 ft 0 kts 304°
2026-05-04 02:41 44.87372 -93.20171 826 ft 1 kts 304°
2026-05-04 02:42 44.87498 -93.20457 823 ft 76 kts 302°
2026-05-04 02:42 44.87911 -93.21407 821 ft 148 kts 301°
2026-05-04 02:42 44.88528 -93.22822 1161 ft 176 kts 300°
2026-05-04 02:42 44.89215 -93.24308 2024 ft 178 kts 299°
2026-05-04 02:43 44.90165 -93.25429 2876 ft 193 kts 336°
2026-05-04 02:43 44.91660 -93.25399 2892 ft 235 kts
2026-05-04 02:43 44.93262 -93.24979 3530 ft 235 kts
2026-05-04 02:43 44.94900 -93.24889 4117 ft 242 kts 359°
2026-05-04 02:44 44.96672 -93.24724 4350 ft 268 kts 360°
2026-05-04 02:44 44.98538 -93.24538 5071 ft 273 kts 360°
2026-05-04 02:44 45.00434 -93.24246 5939 ft 278 kts 13°
2026-05-04 02:44 45.02095 -93.22801 6712 ft 291 kts 46°
2026-05-04 02:45 45.03138 -93.20319 7496 ft 297 kts 60°
2026-05-04 02:45 45.04104 -93.17714 8250 ft 301 kts 59°
2026-05-04 02:45 45.05111 -93.15089 9043 ft 304 kts 58°
2026-05-04 02:45 45.06146 -93.12456 9789 ft 309 kts 57°
2026-05-04 02:46 45.07212 -93.09783 10375 ft 318 kts 56°
2026-05-04 02:46 45.08350 -93.06959 10556 ft 342 kts 57°
2026-05-04 02:46 45.09570 -93.03944 10743 ft 364 kts 57°
2026-05-04 02:46 45.10863 -93.00747 10956 ft 383 kts 57°
2026-05-04 02:47 45.12198 -92.97438 11461 ft 391 kts 57°
2026-05-04 02:47 45.13548 -92.94082 12162 ft 393 kts 57°
2026-05-04 02:47 45.14906 -92.90705 12857 ft 396 kts 56°
2026-05-04 02:47 45.16260 -92.87341 13533 ft 400 kts 56°
2026-05-04 02:48 45.17643 -92.83905 14114 ft 403 kts 56°
2026-05-04 02:48 45.19036 -92.80438 14728 ft 406 kts 56°
2026-05-04 02:48 45.20445 -92.76931 15292 ft 410 kts 56°
2026-05-04 02:48 45.21858 -92.73407 15901 ft 413 kts 56°
2026-05-04 02:49 45.23283 -92.69850 16472 ft 416 kts 56°
2026-05-04 02:49 45.24678 -92.66207 17030 ft 423 kts 61°
2026-05-04 02:49 45.25692 -92.62262 17553 ft 432 kts 72°
2026-05-04 02:49 45.26315 -92.58056 18100 ft 437 kts 76°
2026-05-04 02:50 45.26877 -92.53802 18570 ft 440 kts 76°
2026-05-04 02:50 45.27443 -92.49518 19041 ft 443 kts 76°
2026-05-04 02:50 45.31916 -92.16855 22692 ft 459 kts 75°
2026-05-04 02:51 45.32540 -92.13029 23259 ft 456 kts 75°
2026-05-04 02:51 45.32637 -92.12482 23310 ft 457 kts 74°
2026-05-04 02:51 45.32731 -92.11933 23341 ft 458 kts 73°
2026-05-04 02:51 45.32823 -92.11382 23361 ft 459 kts 73°
2026-05-04 02:52 45.32913 -92.10829 23371 ft 461 kts 73°
2026-05-04 02:52 45.33234 -92.08753 23362 ft 468 kts 74°
2026-05-04 02:52 45.33875 -92.04180 23611 ft 475 kts 75°
2026-05-04 02:52 45.34487 -91.99520 23695 ft 485 kts 76°
2026-05-04 02:53 45.35105 -91.94749 23781 ft 494 kts 76°
2026-05-04 02:53 45.35738 -91.89910 23866 ft 502 kts 76°
2026-05-04 02:53 45.36391 -91.84985 23974 ft 510 kts 76°
2026-05-04 02:53 45.37059 -91.80002 24031 ft 516 kts 76°
2026-05-04 02:54 45.37738 -91.74967 24076 ft 521 kts 76°
2026-05-04 02:54 45.38422 -91.69893 24147 ft 524 kts 76°
2026-05-04 02:54 45.39107 -91.64796 24276 ft 524 kts 76°
2026-05-04 02:54 45.39779 -91.59776 24462 ft 523 kts 76°
2026-05-04 02:55 45.41128 -91.49634 24945 ft 519 kts 75°
2026-05-04 02:55 45.41795 -91.44593 25197 ft 518 kts 75°
2026-05-04 02:55 45.42459 -91.39559 25386 ft 518 kts 75°
2026-05-04 02:56 45.43123 -91.34517 25610 ft 517 kts 75°
2026-05-04 02:56 45.43782 -91.29485 25877 ft 516 kts 75°
2026-05-04 02:56 45.44438 -91.24461 26156 ft 515 kts 75°
2026-05-04 02:56 45.45091 -91.19446 26424 ft 515 kts 75°
2026-05-04 02:57 45.45740 -91.14441 26739 ft 514 kts 75°
2026-05-04 02:57 45.46378 -91.09441 27038 ft 513 kts 77°
2026-05-04 02:57 45.46652 -91.04362 27282 ft 519 kts 88°
2026-05-04 02:57 45.46265 -90.99227 27534 ft 523 kts 98°
2026-05-04 02:58 45.45286 -90.94231 27807 ft 526 kts 109°
2026-05-04 02:58 45.43797 -90.89458 27933 ft 527 kts 113°
2026-05-04 02:58 45.42277 -90.84768 28185 ft 527 kts 113°
2026-05-04 02:58 45.39518 -90.76145 28674 ft 526 kts 112°
2026-05-04 02:59 45.36539 -90.66668 29315 ft 523 kts 111°
2026-05-04 02:59 45.33586 -90.57225 29839 ft 522 kts 111°
2026-05-04 02:59 45.30667 -90.47916 29871 ft 524 kts 112°
2026-05-04 03:00 45.24706 -90.29051 29907 ft 522 kts 112°
2026-05-04 03:00 45.18739 -90.10314 29884 ft 521 kts 112°
2026-05-04 03:01 45.12745 -89.91620 29816 ft 520 kts 112°
2026-05-04 03:01 45.06745 -89.73047 29808 ft 518 kts 112°
2026-05-04 03:02 45.00944 -89.55217 29794 ft 506 kts 112°
2026-05-04 03:02 44.99477 -89.50733 29922 ft 499 kts 112°
2026-05-04 03:02 44.98025 -89.46296 29918 ft 496 kts 112°
2026-05-04 03:03 44.95150 -89.37528 29904 ft 495 kts 112°
2026-05-04 03:03 44.92251 -89.28712 29879 ft 495 kts 112°
2026-05-04 03:04 44.89341 -89.19895 29275 ft 503 kts 112°
2026-05-04 03:04 44.88840 -89.18379 28940 ft 505 kts 112°
2026-05-04 03:05 44.80599 -88.93612 25030 ft 478 kts 113°
2026-05-04 03:05 44.79189 -88.89393 24419 ft 473 kts 113°
2026-05-04 03:06 44.77793 -88.85222 23832 ft 469 kts 113°
2026-05-04 03:06 44.76406 -88.81086 23136 ft 466 kts 113°
2026-05-04 03:06 44.75026 -88.76975 22448 ft 462 kts 114°
2026-05-04 03:06 44.73677 -88.72966 21839 ft 457 kts 114°
2026-05-04 03:07 44.72307 -88.68902 21225 ft 451 kts 114°
2026-05-04 03:07 44.70972 -88.64945 20660 ft 445 kts 114°
2026-05-04 03:07 44.69669 -88.61087 20059 ft 441 kts 114°
2026-05-04 03:07 44.68355 -88.57203 19455 ft 438 kts 114°
2026-05-04 03:08 44.67049 -88.53349 18861 ft 435 kts 114°
2026-05-04 03:08 44.65755 -88.49535 18294 ft 431 kts 114°
2026-05-04 03:08 44.64467 -88.45745 17671 ft 427 kts 114°
2026-05-04 03:08 44.63190 -88.41991 17045 ft 424 kts 114°
2026-05-04 03:09 44.61924 -88.38273 16442 ft 420 kts 114°
2026-05-04 03:09 44.60671 -88.34599 15889 ft 416 kts 114°
2026-05-04 03:09 44.59424 -88.30951 15333 ft 412 kts 114°
2026-05-04 03:09 44.58009 -88.27559 14577 ft 407 kts 130°
2026-05-04 03:10 44.55868 -88.24998 13816 ft 406 kts 153°
2026-05-04 03:10 44.53266 -88.23611 13280 ft 395 kts 171°
2026-05-04 03:10 44.50651 -88.22712 12769 ft 392 kts 163°
2026-05-04 03:10 44.48123 -88.21312 12216 ft 389 kts 160°
2026-05-04 03:11 44.45620 -88.19895 11651 ft 386 kts 161°
2026-05-04 03:11 44.43133 -88.18501 11107 ft 383 kts 161°
2026-05-04 03:11 44.40669 -88.17170 10759 ft 374 kts 163°
2026-05-04 03:11 44.38249 -88.16060 10617 ft 359 kts 165°
2026-05-04 03:12 44.35906 -88.15040 10545 ft 344 kts 166°
2026-05-04 03:12 44.33660 -88.14067 10523 ft 332 kts 166°
2026-05-04 03:12 44.31475 -88.13121 10521 ft 326 kts 166°
2026-05-04 03:12 44.29290 -88.12180 10432 ft 333 kts 167°
2026-05-04 03:13 44.26988 -88.11932 9681 ft 325 kts 199°
2026-05-04 03:13 44.25129 -88.13271 9706 ft 286 kts 228°
2026-05-04 03:13 44.23804 -88.15192 9349 ft 275 kts 226°
2026-05-04 03:13 44.22066 -88.16477 8568 ft 293 kts 198°
2026-05-04 03:14 44.19988 -88.16655 7762 ft 306 kts 179°
2026-05-04 03:14 44.17874 -88.16356 6954 ft 313 kts 176°
2026-05-04 03:14 44.15702 -88.16324 6108 ft 312 kts 197°
2026-05-04 03:14 44.13813 -88.17662 5277 ft 303 kts 227°
2026-05-04 03:15 44.12757 -88.20068 4782 ft 285 kts 259°
2026-05-04 03:15 44.12819 -88.22694 4555 ft 264 kts 292°
2026-05-04 03:15 44.13874 -88.24597 4528 ft 244 kts 324°
2026-05-04 03:15 44.15276 -88.25763 4445 ft 224 kts 320°
2026-05-04 03:16 44.16357 -88.27186 4342 ft 206 kts 310°
2026-05-04 03:16 44.17233 -88.28649 4267 ft 189 kts 304°
2026-05-04 03:16 44.17946 -88.30127 4048 ft 178 kts 302°
2026-05-04 03:16 44.18574 -88.31554 3805 ft 167 kts 298°
2026-05-04 03:17 44.19115 -88.32984 3597 ft 168 kts 296°
2026-05-04 03:17 44.19637 -88.34448 3368 ft 168 kts 296°
2026-05-04 03:17 44.20145 -88.35899 3144 ft 165 kts 296°
2026-05-04 03:17 44.20636 -88.37306 2922 ft 158 kts 296°
2026-05-04 03:18 44.21123 -88.38702 2716 ft 162 kts 296°
2026-05-04 03:18 44.21620 -88.40125 2496 ft 164 kts 296°
2026-05-04 03:18 44.22106 -88.41516 2279 ft 155 kts 296°
2026-05-04 03:18 44.22563 -88.42824 2071 ft 148 kts 296°
2026-05-04 03:19 44.23013 -88.44109 1878 ft 147 kts 296°
2026-05-04 03:19 44.23310 -88.44958 1752 ft 146 kts 296°
2026-05-04 03:19 44.23763 -88.46251 1575 ft 151 kts 294°
2026-05-04 03:19 44.24230 -88.47588 1362 ft 155 kts 295°
2026-05-04 03:20 44.24838 -88.49298 1146 ft 137 kts 295°
2026-05-04 03:20 44.25254 -88.50503 1001 ft 141 kts 294°
2026-05-04 03:20 44.25675 -88.51715 913 ft 129 kts 296°
2026-05-04 03:20 44.25899 -88.52347 914 ft 87 kts 296°
2026-05-04 03:21 44.26072 -88.52841 916 ft 24 kts 295°
2026-05-04 03:21 44.26191 -88.52899 921 ft 14 kts 52°
2026-05-04 03:21 44.26168 -88.52770 918 ft 14 kts 115°
2026-05-04 03:21 44.26126 -88.52649 917 ft 14 kts 117°
2026-05-04 03:22 44.26084 -88.52535 915 ft 13 kts 117°
2026-05-04 03:22 44.26043 -88.52422 914 ft 14 kts 115°
2026-05-04 03:22 44.25996 -88.52284 912 ft 17 kts 117°
2026-05-04 03:22 44.25937 -88.52121 910 ft 20 kts 115°
2026-05-04 03:23 44.25879 -88.51952 914 ft 19 kts 117°
2026-05-04 03:23 44.25834 -88.51784 909 ft 18 kts 85°
2026-05-04 03:23 44.25866 -88.51614 909 ft 18 kts 74°
2026-05-04 03:23 44.25897 -88.51453 912 ft 8 kts 75°
2026-05-04 03:24 44.25905 -88.51429 909 ft 5 kts 59°
2026-05-04 03:24 44.25945 -88.51406 908 ft 8 kts
2026-05-04 03:24 44.25970 -88.51406 908 ft 1 kts 359°
2026-05-04 03:24 44.25979 -88.51406 908 ft 0 kts 359°